sat.trackr.live / text

‹ back to catalog

NAVSTAR 52 (USA 168)

NORAD 27704 · 2003-010A

PAYLOAD ACTIVE UNKNOWN

§ Identity

Operator
Country
US
Launch date
2003-03-31
Launch site
AFETR
Launch vehicle
Mass (kg)
RCS (m²)
4.02

External: N2YO · Heavens-Above · Gunter

§ Orbital elements

Epoch: 2026-05-20T13:40:33.306816Z

Period
739.44 min
Inclination
54.8300°
Eccentricity
0.0003007
Mean motion
1.94743016 rev/d
Perigee alt
20,700.7 km
Apogee alt
20,717.0 km
Semi-major
27,087.0 km
B*
0.0000e+0
RAAN
326.1803°
Arg perigee
1.9314°
Mean anomaly
320.9052°
Rev number
16,937

§ Raw data

NAVSTAR 52 (USA 168)1 27704U 03010A   26140.56982994 -.00000076  00000+0  00000+0 0  99912 27704  54.8300 326.1803 0003007   1.9314 320.9052  1.94743016169375

JSON: /api/v1/satellites/27704 · /tle

For live sub-satellite position, see the globe view (requires WebGL).

§ Visibility from observer

Set your observer location to see the next 7 days of passes ≥ 10°. The values pass through the URL so the page stays shareable.

No JS? Fill the form by hand. The geolocation button needs JavaScript.